Location: Igon
(43.1667°N, 0.2333°W)
Time: 14:32:04
(UTC+00:00)

CZ-4B DEB - Pass Details

Date: 29 November 2020
Orbit: 841 x 861 km, 99.1° (Epoch: 22 January)

Event Time Altitude Azimuth Distance (km) Brightness Sun altitude
Rises 06:10:22 0° 13° (NNE) 3,407 7.3 -10.9°
Reaches altitude 10° 06:12:44 10° 12° (NNE) 2,469 6.6 -10.5°
Maximum altitude 06:18:12 79° 287° (WNW) 864 4.2 -9.6°
Drops below altitude 10° 06:23:39 10° 201° (SSW) 2,459 6.6 -8.6°
Sets 06:26:00 0° 200° (SSW) 3,393 7.4 -8.2°
